Regional Weather Roundup
Issued by NWS

Home | Current Version | Previous Version | Graphics & Text | Print | Product List | Glossary On
Versions: 1 2 3 4 5 6 7 8 9 10 11 12 13 14 15 16 17 18 19 20 21 22 23 24 25 26 27 28 29 30 31 32 33 34 35 36 37 38 39 40 41 42 43 44 45 46 47 48 49 50
000
ASUS43 KFSD 252102
RWRSD

WEATHER ROUNDUP FOR SOUTH DAKOTA
NATIONAL WEATHER SERVICE SIOUX FALLS SD
400 PM CDT TUE JUL 25 2017

NOTE: "FAIR" INDICATES FEW OR NO CLOUDS BELOW 12,000 FEET WITH NO
SIGNIFICANT WEATHER AND/OR OBSTRUCTIONS TO VISIBILITY.


SDZ001>005-009-010-012>017-252200-
NORTHWEST AND NORTH CENTRAL SOUTH DAKOTA

CITY           SKY/WX    TMP DP  RH WIND       PRES   REMARKS
BUFFALO          N/A     83  47  28 NE15G21   30.01R
FAITH            N/A     85  60  42 N23G29    29.99
MOBRIDGE       CLOUDY    84  65  52 N13       29.93R
$$

SDZ012>016-024>037-041>051-057-063-072>074-252200-
SOUTHWEST AND SOUTH CENTRAL SOUTH DAKOTA

CITY           SKY/WX    TMP DP  RH WIND       PRES   REMARKS
RAPID CTY ARPT CLOUDY    85  59  41 NE9       30.02R
PIERRE         CLOUDY    91  65  41 NE16      29.87F
CUSTER         CLOUDY    75  48  38 E21       30.18R
ELLSWORTH AFB  PTSUNNY   85  60  42 E7        30.03R
PHILIP         CLOUDY    91  62  37 NE16      29.92R
PINE RIDGE     MOSUNNY   95  62  33 N18G25    29.95F HX  96
SPEARFISH      FAIR      81  59  47 NE13      30.09S
WINNER         FAIR     101  65  30 NW9       29.84S HX 104
$$

SDZ004>011-016>023-039-040-252200-
NORTHEAST SOUTH DAKOTA

CITY           SKY/WX    TMP DP  RH WIND       PRES   REMARKS
ABERDEEN       PTSUNNY   82  74  76 NE6       29.90S
WATERTOWN      CLOUDY    88  71  57 VRB5      29.91R
BROOKINGS      MOSUNNY   90  75  61 S9        29.86F HX 100
SISSETON         N/A     80  73  79 SE6       29.88F
$$

SDZ017-020-022-023-036>040-048>070-252200-
SOUTHEAST SOUTH DAKOTA

CITY           SKY/WX    TMP DP  RH WIND       PRES   REMARKS
SIOUX FALLS    CLOUDY    95  70  44 S20G30    29.87F HX 101
HURON          LGT RAIN  81  74  79 N15       29.86R
CHAMBERLAIN    PTSUNNY  101  68  34 N9        29.81F HX 106
MITCHELL       PTSUNNY  102  67  31 S16G26    29.79F HX 107
YANKTON        SUNNY     98  63  31 S18G33    29.86S HX 100
$$

ABBREVIATIONS USED IN REMARKS
   TC - TEMPERATURE IN CELSIUS
  WCI - WIND CHILL INDEX
   HX - HEAT INDEX
  VSB - VISIBILITY





USA.gov is the U.S. government's official web portal to all federal, state and local government web resources and services.